Weather History for KBVO - March, 2013

Change the Weather History Date:

Saturday, March 9, 2013

  Actual Average Record
Temperature  
Mean Temperature 59 °F -  
Max Temperature 63 °F 63 °F 82 °F (1986)
Min Temperature 54 °F 35 °F 14 °F (1969)
Degree Days  
Heating Degree Days 6    
Growing Degree Days 9 (Base 50)    
Moisture  
Dew Point 50 °F    
Average Humidity 76    
Maximum Humidity 100    
Minimum Humidity 44    
Precipitation  
Precipitation 0.14 in - - ()
Sea Level Pressure  
Sea Level Pressure 29.74 in    
Wind  
Wind Speed 13 mph (South)    
Max Wind Speed 21 mph    
Max Gust Speed 32 mph    
Visibility 8 miles    
Events Rain , Thunderstorm    
Averages and records for this station are not official NWS values.
T = Trace of Precipitation, MM = Missing Value Source: NWS Daily Summary

Daily Weather History Graph

Daily Weather History Graph

Search for Another Location

Airport or City:

Trip Planner

Search our weather history database for the weather conditions in past years. The results will help you decide how hot, cold, wet, or windy it might be!

Date:

Astronomy

Mar. 09, 2013 Rise Set
Actual Time 6:43 AM CST 6:26 PM CST
Civil Twilight 6:17 AM CST 6:52 PM CST
Nautical Twilight 5:47 AM CST 7:22 PM CST
Astronomical Twilight 5:17 AM CST 7:52 PM CST
Moon 5:05 AM CST (3/9) 4:31 PM CST (3/9)
Length of Visible Light 12h 34m
Length of Day
11h 42m
Waning Crescent, 5% of the Moon is Illuminated
Mar 9
Waning Crescent
Mar 11
New
Mar 19
First Quarter
Mar 27
Full
Apr 2
Last Quarter

Hourly Weather History & Observations

Time (CST) Temp. Dew Point Humidity Pressure Visibility Wind Dir Wind Speed Gust Speed Precip Events Conditions
12:53 AM 57.9 °F 37.0 °F 46% 29.95 in 10.0 mi SSE 13.8 mph - N/A   Overcast
1:53 AM 57.9 °F 37.0 °F 46% 29.94 in 10.0 mi South 13.8 mph 19.6 mph N/A   Overcast
2:53 AM 57.9 °F 36.0 °F 44% 29.91 in 10.0 mi South 13.8 mph 24.2 mph N/A   Overcast
3:53 AM 57.0 °F 37.0 °F 47% 29.90 in 10.0 mi SSE 9.2 mph - N/A   Overcast
4:53 AM 55.9 °F 37.0 °F 49% 29.89 in 10.0 mi South 11.5 mph 17.3 mph N/A   Overcast
5:53 AM 55.9 °F 37.0 °F 49% 29.88 in 10.0 mi South 10.4 mph - N/A   Overcast
6:53 AM 55.9 °F 37.9 °F 51% 29.87 in 10.0 mi SSE 12.7 mph - N/A   Overcast
7:53 AM 55.0 °F 39.0 °F 55% 29.83 in 10.0 mi SSE 13.8 mph 23.0 mph N/A   Overcast
8:53 AM 57.0 °F 43.0 °F 59% 29.82 in 10.0 mi South 15.0 mph 27.6 mph N/A   Overcast
9:44 AM 57.2 °F 46.4 °F 67% 29.82 in 10.0 mi South 13.8 mph 25.3 mph N/A   Overcast
9:53 AM 60.1 °F 46.9 °F 62% 29.80 in 10.0 mi SSE 20.7 mph 31.1 mph N/A   Mostly Cloudy
10:05 AM 60.8 °F 46.4 °F 59% 29.81 in 10.0 mi South 19.6 mph 26.5 mph N/A   Overcast
10:53 AM 62.1 °F 50.0 °F 65% 29.76 in 10.0 mi South 19.6 mph 27.6 mph N/A   Overcast
11:53 AM 62.1 °F 52.0 °F 70% 29.74 in 10.0 mi SSE 20.7 mph 28.8 mph N/A   Overcast
12:00 PM 62.6 °F 51.8 °F 68% 29.76 in 10.0 mi South 19.6 mph 28.8 mph N/A   Overcast
12:53 PM 63.0 °F 54.0 °F 72% 29.72 in 10.0 mi South 20.7 mph 32.2 mph N/A   Overcast
1:53 PM 62.1 °F 55.0 °F 78% 29.69 in 10.0 mi South 16.1 mph 20.7 mph 0.00 in   Overcast
2:53 PM 62.1 °F 55.0 °F 78% 29.68 in 10.0 mi South 15.0 mph 25.3 mph N/A   Overcast
3:53 PM 61.0 °F 55.9 °F 83% 29.66 in 9.0 mi South 16.1 mph 32.2 mph N/A   Overcast
4:53 PM 60.1 °F 55.9 °F 86% 29.64 in 8.0 mi SSE 18.4 mph 25.3 mph N/A   Overcast
5:11 PM 60.8 °F 57.2 °F 88% 29.66 in 9.0 mi South 16.1 mph 25.3 mph N/A Thunderstorm Overcast
5:45 PM 59.0 °F 57.2 °F 94% 29.67 in 2.5 mi South 6.9 mph 19.6 mph 0.03 in Rain Rain
5:53 PM 59.0 °F 57.9 °F 96% 29.65 in 2.5 mi South 10.4 mph - 0.04 in Rain Light Rain
6:00 PM 59.0 °F 57.2 °F 94% 29.66 in 3.0 mi SSE 12.7 mph - 0.01 in Rain Light Rain
6:08 PM 59.0 °F 57.2 °F 94% 29.67 in 2.5 mi SSE 13.8 mph - 0.03 in Rain , Thunderstorm Light Rain
6:34 PM 59.0 °F 57.2 °F 94% 29.66 in 2.0 mi SSE 12.7 mph 19.6 mph 0.07 in Rain Light Rain
6:39 PM 59.0 °F 57.2 °F 94% 29.65 in 3.0 mi SSE 10.4 mph 19.6 mph 0.07 in Rain Light Rain
6:53 PM 59.0 °F 57.9 °F 96% 29.65 in 6.0 mi South 6.9 mph - 0.08 in Rain Light Rain
7:11 PM 59.0 °F 57.2 °F 94% 29.67 in 5.0 mi South 4.6 mph - 0.02 in Rain Light Rain
7:16 PM 59.0 °F 57.2 °F 94% 29.66 in 5.0 mi South 4.6 mph - 0.02 in Rain Light Rain
7:53 PM 59.0 °F 57.9 °F 96% 29.67 in 5.0 mi SSW 4.6 mph - 0.02 in   Overcast
8:39 PM 57.2 °F 57.2 °F 100% 29.69 in 7.0 mi South 9.2 mph - 0.00 in   Overcast
8:53 PM 57.9 °F 57.0 °F 97% 29.65 in 7.0 mi SSE 5.8 mph - 0.00 in   Overcast
9:53 PM 57.0 °F 55.0 °F 93% 29.65 in 10.0 mi South 6.9 mph - N/A   Clear
10:53 PM 55.0 °F 54.0 °F 96% 29.65 in 10.0 mi SW 3.5 mph - N/A   Clear
11:53 PM 54.0 °F 52.0 °F 93% 29.65 in 10.0 mi South 5.8 mph - N/A   Partly Cloudy